[[{"header":{"parameterUnit":"m.s-1","parameterCategory":1,"la1":30.2991,"la2":30.254,"lo1":-89.0895,"lo2":-89.0444,"dy":0.0017,"dx":0.0017,"nx":28,"ny":28,"refTime":"2024-08-01T09:00:00:Z","depth":0,"parameterNumber":2,"parameterNumberName":"U-component_of_WINDS"},"data":[0,0,0,0,0,0,0,0,0,0,0,0,0,0,0,0,0,0,0,0,0,0,0,0,0,0,0,0,0,0,0,0,0,0,0,0,0,0,0,0,0,0,0,0,0,0,0,0,0,0,0,0,0,0,0,0,0,0,3.7138,3.7139,0,3.7257,3.7258,3.726,3.7219,3.7217,3.7214,3.7212,3.7334,3.734,3.7346,0,0,0,0,0,0,0,0,0,0,0,0,0,3.6877,3.6882,3.7138,3.7139,3.7141,3.7257,3.7258,3.726,3.722,3.7217,3.7213,3.721,3.7333,3.7339,3.7346,0,0,0,0,0,0,0,0,0,0,0,0,0,3.6993,3.6884,3.7138,3.7135,3.7136,3.7256,3.7258,3.726,3.722,3.7216,3.7213,3.7209,3.733,3.7339,3.7347,3.7478,0,0,3.7373,3.7377,0,0,0,0,0,0,0,0,3.6986,3.7002,3.7134,3.7135,3.7136,3.7219,3.7211,3.7333,3.7221,3.7188,3.7212,3.7207,3.7299,3.731,3.7341,3.7484,3.7489,3.7374,3.7379,3.7383,3.7385,0,0,0,0,0,0,0,3.6978,3.6997,3.7185,3.7136,3.7137,3.7128,3.714,3.7234,3.7264,3.7191,3.7188,3.7203,3.7299,3.7333,3.7344,3.7491,3.7374,3.7381,3.7386,3.739,3.7747,3.7751,0,0,0,0,0,0,3.6969,3.699,3.7181,3.7188,3.705,3.7136,3.7149,3.7197,3.7263,3.7269,3.7206,3.72,3.732,3.7334,3.7348,3.7505,3.7383,3.7391,3.7396,3.7743,3.7748,3.7753,0,0,0,0,0,0,3.6964,3.6987,3.7176,3.7089,3.7112,3.7144,3.7198,3.7201,3.7234,3.7275,3.728,3.7235,3.7318,3.7336,3.7446,3.7509,3.7395,3.7402,3.7738,3.7744,3.775,3.7822,0,0,0,0,0,0,3.6956,3.6985,3.7035,3.709,3.7117,3.7272,3.7202,3.7206,3.7249,3.7243,3.7303,3.7309,3.7316,3.7433,3.7454,3.7519,3.7409,3.7732,3.7741,3.7748,3.7814,3.783,3.7843,0,0,0,0,0,3.6947,3.705,3.7037,3.7061,3.718,3.7276,3.7291,3.7297,3.7254,3.7305,3.7331,3.7307,3.7499,3.7445,3.7468,3.7536,3.7728,3.7738,3.7748,3.7807,3.7827,3.7843,0,0,0,0,0,0,3.7001,3.7057,3.7044,3.7168,3.7217,3.7269,3.7333,3.7317,3.738,3.7372,3.7377,3.7391,3.7504,3.7531,3.747,3.7666,3.7607,3.7622,3.7644,3.7663,3.7678,3.7669,3.7416,0,0,0,0,0,3.7028,3.7101,3.7146,3.7251,3.7276,3.7301,3.7343,3.7343,3.7394,3.7415,3.7449,3.75,3.7572,3.7619,3.7688,3.7818,3.783,3.7876,3.7891,3.7903,3.7916,3.7986,3.8007,3.7785,3.7785,3.7785,0,0,3.7083,3.7122,3.7168,3.7263,3.7301,3.7377,3.7318,3.7401,3.7457,3.7428,3.7533,3.756,3.7618,3.7739,3.7794,3.7765,3.798,3.7915,3.7925,3.7931,3.7999,3.802,3.8038,3.7792,3.779,3.7789,0,0,3.7222,3.7259,3.7351,3.7391,3.7449,3.7465,3.7487,3.7541,3.7558,3.7664,3.7644,3.7711,3.7834,3.7876,3.7914,3.807,3.805,3.8092,3.8169,3.8238,3.8256,3.8271,3.8327,3.8346,3.8105,3.8105,3.8105,0,3.7283,3.7396,3.74,3.7484,3.7526,3.7503,3.7596,3.7635,3.7713,3.7743,3.771,3.7864,3.7902,3.8032,3.807,3.8101,3.8127,3.8085,3.8253,3.8269,3.8283,3.8336,3.8357,3.8109,3.8109,3.8108,3.8108,0,3.7468,3.7547,3.7614,3.769,3.7739,3.7828,3.7845,3.7895,3.7892,3.7911,3.8019,3.8063,3.814,3.8171,3.8168,3.8301,3.8282,3.8251,3.8191,3.8309,3.8358,3.8379,3.8116,3.8114,3.8113,3.8112,0,0,3.7643,3.7721,3.7745,3.778,3.7843,3.7904,3.7992,3.8067,3.8109,3.8165,3.8238,3.8344,3.8316,3.8358,3.836,3.8421,3.8541,3.8383,3.8384,3.841,3.869,3.8712,3.8735,3.8529,3.8533,3.8536,3.8685,0,3.7787,3.794,3.7947,3.8086,3.8159,3.8139,3.8215,3.8262,3.8283,3.8348,3.8371,3.8445,3.8403,3.8428,3.8487,3.8514,3.8597,3.8503,3.8597,3.86,3.8582,3.8761,3.8785,3.8924,3.8704,3.8708,3.871,0,3.7975,3.8036,3.8183,3.8236,3.8267,3.8335,3.8404,3.8467,3.8521,3.8531,3.8579,3.8572,3.8662,3.86,3.8724,3.866,3.8699,3.8718,3.8724,3.8732,3.8662,3.8774,3.8968,3.8989,3.8741,3.8738,3.8736,0,3.8088,3.8207,3.831,3.834,3.8405,3.8453,3.8483,3.8533,3.8577,3.8638,3.8667,3.8738,3.8776,3.8831,3.8844,3.8798,3.8968,3.8907,3.8979,3.8979,3.9015,3.9013,3.9218,3.9042,3.9042,3.9041,3.9041,0,3.8248,3.8338,3.8361,3.8425,3.8526,3.8533,3.8632,3.8658,3.8703,3.8771,3.8758,3.8823,3.8836,3.8903,3.8914,3.9015,3.9032,3.9043,3.9045,3.9044,3.9043,3.9069,3.906,3.9047,3.9045,3.9044,3.9043,0,3.839,3.8409,3.852,3.8573,3.8588,3.866,3.8705,3.8766,3.8785,3.8872,3.8893,3.8923,3.9002,3.902,3.9113,3.912,3.924,3.9232,3.9222,3.9221,3.9292,3.9284,3.952,3.9551,3.9356,3.9358,3.9359,0,3.849,3.8559,3.8619,3.8664,3.8696,3.8768,3.8813,3.8823,3.8871,3.8938,3.8991,3.9068,3.913,3.9257,3.9287,3.9359,3.9352,3.943,3.9363,3.936,3.9353,3.9348,3.9355,3.9443,3.9445,3.9446,3.9448,0,3.8666,3.8672,3.8738,3.8808,3.8862,3.8917,3.897,3.9008,3.9025,3.9079,3.9159,3.9207,3.9303,3.938,3.9452,3.9482,3.9468,3.9469,3.9489,3.9489,3.9479,3.9485,3.9256,3.9463,3.9462,3.946,3.946,3.9459,3.879,3.885,3.8902,3.8976,3.9017,3.9066,3.9126,3.9153,3.9219,3.9297,3.9299,3.9387,3.9439,3.9534,3.9569,3.9638,3.9614,3.9644,3.9651,3.9658,3.9664,3.9469,3.9651,3.9651,3.965,3.965,3.965,0,3.8964,3.8997,3.9065,3.9138,3.9197,3.9178,3.9236,3.9286,3.9363,3.9412,3.9474,3.9566,3.964,3.9677,3.9751,3.9799,3.9794,3.9818,3.9814,3.9821,3.9681,3.9656,3.982,3.982,3.982,3.982,3.982,3.982,3.9062,3.9163,3.9175,3.9297,3.9328,3.9413,3.9448,3.9494,3.9533,3.9637,3.9698,3.9721,3.9766,3.9843,3.9911,3.9919,3.9947,3.9974,3.9979,3.9848,3.9831,3.9814,3.979,3.998,3.998,4.0113,4.0114,4.0115]},{"header":{"parameterUnit":"m.s-1","parameterCategory":1,"la1":30.2991,"la2":30.254,"lo1":-89.0895,"lo2":-89.0444,"dy":0.0017,"dx":0.0017,"nx":28,"ny":28,"refTime":"2024-08-01T09:00:00:Z","depth":0,"parameterNumber":3,"parameterNumberName":"V-component_of_WINDS"},"data":[0,0,0,0,0,0,0,0,0,0,0,0,0,0,0,0,0,0,0,0,0,0,0,0,0,0,0,0,0,0,0,0,0,0,0,0,0,0,0,0,0,0,0,0,0,0,0,0,0,0,0,0,0,0,0,0,0,0,-0.8198,-0.8199,0,-0.8254,-0.8255,-0.8255,-0.8263,-0.8263,-0.8262,-0.8262,-0.8319,-0.8321,-0.8323,0,0,0,0,0,0,0,0,0,0,0,0,0,-0.81,-0.8102,-0.8198,-0.8199,-0.82,-0.8254,-0.8255,-0.8255,-0.8263,-0.8263,-0.8262,-0.8261,-0.8319,-0.8321,-0.8323,0,0,0,0,0,0,0,0,0,0,0,0,0,-0.8148,-0.8102,-0.8198,-0.821,-0.8212,-0.8254,-0.8255,-0.8256,-0.8263,-0.8263,-0.8262,-0.8261,-0.8318,-0.8321,-0.8324,-0.8358,0,0,-0.8333,-0.8334,0,0,0,0,0,0,0,0,-0.8145,-0.8151,-0.8208,-0.8209,-0.8211,-0.8251,-0.8241,-0.829,-0.8264,-0.8244,-0.8262,-0.8261,-0.8297,-0.8302,-0.8314,-0.8361,-0.8363,-0.8333,-0.8335,-0.8336,-0.8337,0,0,0,0,0,0,0,-0.8142,-0.8149,-0.822,-0.8208,-0.8211,-0.8213,-0.8219,-0.825,-0.8274,-0.8245,-0.8246,-0.8253,-0.8298,-0.8311,-0.8315,-0.8364,-0.8333,-0.8336,-0.8338,-0.8339,-0.8443,-0.8444,0,0,0,0,0,0,-0.8136,-0.8146,-0.8219,-0.8222,-0.8176,-0.8215,-0.8222,-0.8239,-0.8274,-0.8278,-0.8253,-0.8253,-0.8306,-0.8312,-0.8317,-0.836,-0.8336,-0.8339,-0.8341,-0.8442,-0.8443,-0.8444,0,0,0,0,0,0,-0.8134,-0.8142,-0.8216,-0.8184,-0.8194,-0.8218,-0.8237,-0.824,-0.8253,-0.828,-0.8284,-0.8262,-0.8306,-0.8313,-0.8348,-0.8362,-0.8341,-0.8343,-0.8441,-0.8442,-0.8444,-0.8446,0,0,0,0,0,0,-0.8131,-0.8142,-0.8154,-0.8185,-0.8196,-0.8245,-0.8238,-0.8242,-0.8259,-0.8259,-0.8289,-0.8294,-0.8306,-0.8344,-0.8351,-0.8366,-0.8346,-0.844,-0.8441,-0.8443,-0.8445,-0.8448,-0.845,0,0,0,0,0,-0.8128,-0.8153,-0.8155,-0.8164,-0.8212,-0.8246,-0.8253,-0.8266,-0.826,-0.8273,-0.829,-0.8293,-0.836,-0.8347,-0.8356,-0.8372,-0.8439,-0.8441,-0.8443,-0.8444,-0.8447,-0.845,0,0,0,0,0,0,-0.8123,-0.8157,-0.816,-0.8195,-0.8218,-0.8247,-0.8265,-0.8269,-0.8294,-0.8293,-0.8309,-0.8316,-0.835,-0.8364,-0.835,-0.8408,-0.8399,-0.8403,-0.8396,-0.84,-0.8402,-0.8398,-0.8348,0,0,0,0,0,-0.8127,-0.8151,-0.8179,-0.8208,-0.8219,-0.824,-0.8256,-0.8264,-0.8288,-0.8298,-0.8317,-0.8341,-0.8368,-0.8385,-0.841,-0.8447,-0.8455,-0.8463,-0.8465,-0.8467,-0.847,-0.8492,-0.8496,-0.8451,-0.8451,-0.8451,0,0,-0.8134,-0.8155,-0.8169,-0.8208,-0.8226,-0.8252,-0.8248,-0.8275,-0.8295,-0.8302,-0.8336,-0.8351,-0.8379,-0.8415,-0.8432,-0.8429,-0.8485,-0.847,-0.8471,-0.8473,-0.8495,-0.8499,-0.8503,-0.8453,-0.8452,-0.8452,0,0,-0.8159,-0.8178,-0.8204,-0.8223,-0.8251,-0.8265,-0.8271,-0.8301,-0.8311,-0.8346,-0.8352,-0.8376,-0.8421,-0.8441,-0.8457,-0.8492,-0.8495,-0.85,-0.8512,-0.8533,-0.8537,-0.854,-0.8553,-0.8557,-0.8503,-0.8503,-0.8503,0,-0.8164,-0.8203,-0.8217,-0.8244,-0.8261,-0.827,-0.8297,-0.8315,-0.835,-0.8362,-0.8357,-0.8415,-0.8434,-0.8476,-0.8484,-0.8497,-0.8505,-0.8496,-0.8535,-0.8538,-0.8542,-0.8554,-0.8559,-0.8503,-0.8503,-0.8503,-0.8503,0,-0.8208,-0.8235,-0.8253,-0.8287,-0.8306,-0.8333,-0.8352,-0.837,-0.8377,-0.8392,-0.8428,-0.8451,-0.8482,-0.8493,-0.85,-0.8536,-0.8533,-0.8532,-0.8523,-0.8546,-0.8558,-0.8563,-0.8504,-0.8504,-0.8503,-0.8503,0,0,-0.8231,-0.8274,-0.828,-0.8296,-0.8329,-0.835,-0.8378,-0.8409,-0.8424,-0.8448,-0.8473,-0.8512,-0.8511,-0.8529,-0.8539,-0.8557,-0.8584,-0.8554,-0.8555,-0.8559,-0.8626,-0.8626,-0.8632,-0.8587,-0.8588,-0.8589,-0.8623,0,-0.8261,-0.831,-0.8325,-0.8367,-0.8392,-0.8401,-0.8426,-0.8449,-0.8464,-0.8488,-0.8505,-0.8532,-0.8529,-0.854,-0.8559,-0.8577,-0.8598,-0.8575,-0.861,-0.8611,-0.8602,-0.8638,-0.8638,-0.867,-0.8628,-0.8629,-0.863,0,-0.8301,-0.8327,-0.8371,-0.8402,-0.8413,-0.8435,-0.8464,-0.8487,-0.8514,-0.8524,-0.8545,-0.8553,-0.8584,-0.8574,-0.8617,-0.8601,-0.8616,-0.8628,-0.8629,-0.8633,-0.8621,-0.8642,-0.868,-0.8685,-0.8637,-0.8636,-0.8636,0,-0.8314,-0.836,-0.8392,-0.8406,-0.8442,-0.8457,-0.8473,-0.8499,-0.8517,-0.8543,-0.8555,-0.8585,-0.8601,-0.8624,-0.8641,-0.8632,-0.8683,-0.8674,-0.8692,-0.8691,-0.8701,-0.87,-0.8742,-0.8712,-0.8712,-0.8712,-0.8711,0,-0.8345,-0.8372,-0.8399,-0.8419,-0.845,-0.8467,-0.8497,-0.8514,-0.8537,-0.8561,-0.8571,-0.8594,-0.8614,-0.864,-0.8654,-0.8687,-0.8694,-0.8703,-0.8707,-0.8702,-0.8701,-0.8713,-0.8711,-0.8713,-0.8713,-0.8712,-0.8712,0,-0.8364,-0.8383,-0.8419,-0.8451,-0.846,-0.8481,-0.8509,-0.8529,-0.8545,-0.8575,-0.8583,-0.8608,-0.8639,-0.8658,-0.8697,-0.8706,-0.8744,-0.8746,-0.8734,-0.8736,-0.8752,-0.8751,-0.8803,-0.8811,-0.8775,-0.8775,-0.8775,0,-0.8382,-0.8403,-0.8438,-0.8454,-0.847,-0.8497,-0.8516,-0.8534,-0.8553,-0.8586,-0.8603,-0.8634,-0.866,-0.8709,-0.8731,-0.8761,-0.8765,-0.8781,-0.8769,-0.8765,-0.8765,-0.8764,-0.8766,-0.8783,-0.8783,-0.8783,-0.8783,0,-0.8413,-0.8422,-0.8448,-0.8478,-0.85,-0.8524,-0.8548,-0.8562,-0.8584,-0.8605,-0.8637,-0.8657,-0.8698,-0.8729,-0.8762,-0.8779,-0.8785,-0.8787,-0.8793,-0.8789,-0.8781,-0.8786,-0.874,-0.8786,-0.8785,-0.8785,-0.8785,-0.8785,-0.8433,-0.8452,-0.8479,-0.8509,-0.8529,-0.8552,-0.8573,-0.8592,-0.8618,-0.8652,-0.8662,-0.8695,-0.8723,-0.8767,-0.8785,-0.8812,-0.881,-0.8818,-0.882,-0.8822,-0.8822,-0.8777,-0.8818,-0.8818,-0.8818,-0.8818,-0.8818,0,-0.8464,-0.8482,-0.8509,-0.8543,-0.8566,-0.8571,-0.8598,-0.8618,-0.8647,-0.8672,-0.8698,-0.8735,-0.8766,-0.8791,-0.8823,-0.8839,-0.8843,-0.8847,-0.8846,-0.885,-0.8822,-0.8814,-0.8844,-0.8844,-0.8844,-0.8844,-0.8844,-0.8844,-0.8483,-0.8517,-0.8529,-0.8573,-0.8591,-0.8624,-0.864,-0.8661,-0.8682,-0.8722,-0.8748,-0.8764,-0.879,-0.8824,-0.8853,-0.886,-0.8871,-0.8874,-0.8882,-0.8855,-0.8852,-0.8849,-0.8842,-0.8877,-0.8877,-0.8907,-0.8908,-0.8908]}]]